Location: Wingville
(42.9917°N, 90.4915°W)
Time: 03:37:51
(UTC+00:00)

CUBESAT XI-V - Pass Details

Date: 05 July 2022
Orbit: 668 x 690 km, 98.1° (Epoch: 13 August)

Event Time Altitude Azimuth Distance (km) Brightness Sun altitude
Exits shadow 08:38:26 24° 239° (WSW) 1,388 ? -15.5°
Maximum altitude 08:39:38 27° 265° (W) 1,289 ? -15.4°
Drops below altitude 10° 08:43:33 10° 323° (NW) 2,105 ? -15.0°
Sets 08:46:05 0° 336° (NNW) 3,022 ? -14.7°
